Terminal Aerodrome Forecast
Issued by NWS

Home | Current Version | Previous Version | Text Only | Print | Product List | Glossary On
Versions: 1 2 3 4 5 6 7 8 9 10 11 12 13 14 15 16 17 18 19 20 21 22 23 24 25
603
FTUS43 KAPX 161131
TAFMBL
TAF
KMBL 161131Z 1612/1712 04004KT P6SM -SHSN BKN050
     FM161700 03007KT 6SM -SHSN OVC025
     FM170200 VRB03KT 5SM -SHSN OVC020
     FM170800 26007KT P6SM BKN150
     FM171100 24013G18KT P6SM BKN120=

USA.gov is the U.S. government's official web portal to all federal, state and local government web resources and services.